[[{"header":{"parameterUnit":"m.s-1","parameterCategory":2,"la1":30.2991,"la2":30.254,"lo1":-89.0895,"lo2":-89.0444,"dy":0.0017,"dx":0.0017,"nx":28,"ny":28,"refTime":"2023-03-22T21:00:00:Z","depth":"0","parameterNumber":2,"parameterNumberName":"U-component_of_CURRENTS"},"data":[0,0,0,0,0,0,0,0,0,0,0,0,0,0,0,0,0,0,0,0,0,0,0,0,0,0,0,0,0,0,0,0,0,0,0,0,0,0,0,0,0,0,0,0,0,0,0,0,0,0,0,0,0,0,0,0,0,0,-0.0908,-0.0908,0,-0.0926,-0.0926,-0.0926,-0.0926,-0.0926,-0.0926,-0.0926,-0.0885,-0.0884,-0.0883,0,0,0,0,0,0,0,0,0,0,0,0,0,-0.0903,-0.0902,-0.0908,-0.0908,-0.0909,-0.0926,-0.0926,-0.0926,-0.0926,-0.0926,-0.0926,-0.0926,-0.0885,-0.0884,-0.0883,0,0,0,0,0,0,0,0,0,0,0,0,0,-0.0909,-0.0902,-0.0908,-0.0912,-0.0913,-0.0926,-0.0926,-0.0926,-0.0926,-0.0926,-0.0926,-0.0926,-0.0886,-0.0884,-0.0883,-0.0875,0,0,-0.0878,-0.0878,0,0,0,0,0,0,0,0,-0.0909,-0.0909,-0.0911,-0.0912,-0.0913,-0.0925,-0.091,-0.0907,-0.0926,-0.0919,-0.0926,-0.0926,-0.0894,-0.0892,-0.0894,-0.0873,-0.0872,-0.0878,-0.0877,-0.0876,-0.0876,0,0,0,0,0,0,0,-0.0908,-0.0909,-0.0913,-0.0912,-0.0913,-0.0923,-0.0924,-0.0909,-0.0904,-0.0919,-0.092,-0.0925,-0.0894,-0.0895,-0.0893,-0.0871,-0.0878,-0.0877,-0.0876,-0.0875,-0.0874,-0.0875,0,0,0,0,0,0,-0.0909,-0.0908,-0.0913,-0.0914,-0.0913,-0.0924,-0.0924,-0.092,-0.0906,-0.0905,-0.0925,-0.0925,-0.0898,-0.0895,-0.0891,-0.091,-0.0876,-0.0875,-0.0874,-0.0873,-0.0874,-0.0875,0,0,0,0,0,0,-0.0908,-0.0908,-0.0912,-0.0914,-0.0915,-0.0924,-0.0919,-0.092,-0.0931,-0.0911,-0.0908,-0.0936,-0.0898,-0.0893,-0.0885,-0.0908,-0.0874,-0.0873,-0.0872,-0.0874,-0.0875,-0.093,0,0,0,0,0,0,-0.0908,-0.0908,-0.0913,-0.0913,-0.0915,-0.0934,-0.092,-0.0921,-0.0935,-0.0935,-0.0919,-0.0915,-0.0897,-0.0887,-0.0883,-0.0905,-0.0872,-0.0871,-0.0873,-0.0874,-0.0927,-0.0933,-0.0938,0,0,0,0,0,-0.0907,-0.0909,-0.0913,-0.0914,-0.0919,-0.0935,-0.0937,-0.0941,-0.0935,-0.0949,-0.0931,-0.0916,-0.0895,-0.0886,-0.0881,-0.0903,-0.087,-0.0872,-0.0874,-0.0924,-0.0932,-0.0938,0,0,0,0,0,0,-0.09,-0.091,-0.0914,-0.0916,-0.0933,-0.0936,-0.0938,-0.0949,-0.0947,-0.0939,-0.0919,-0.0914,-0.0917,-0.0901,-0.0892,-0.0909,-0.0884,-0.0885,-0.0924,-0.093,-0.0936,-0.0954,-0.087,0,0,0,0,0,-0.0904,-0.0913,-0.0924,-0.0929,-0.0929,-0.0937,-0.0946,-0.0955,-0.0951,-0.0951,-0.0939,-0.0926,-0.0921,-0.0918,-0.0907,-0.0911,-0.0913,-0.0925,-0.0931,-0.0935,-0.0947,-0.0963,-0.0972,-0.0882,-0.0882,-0.0882,0,0,-0.0903,-0.0909,-0.0915,-0.093,-0.093,-0.0957,-0.0941,-0.0954,-0.0986,-0.0944,-0.0963,-0.0941,-0.0926,-0.0933,-0.0934,-0.0923,-0.0965,-0.0938,-0.0942,-0.0952,-0.0966,-0.0975,-0.0983,-0.0883,-0.0883,-0.0883,0,0,-0.0907,-0.0904,-0.0917,-0.0936,-0.0953,-0.0969,-0.0978,-0.0988,-0.0995,-0.1014,-0.0991,-0.0981,-0.0977,-0.0969,-0.0965,-0.0994,-0.0991,-0.0998,-0.1042,-0.1058,-0.1065,-0.1072,-0.1098,-0.1106,-0.1003,-0.1003,-0.1003,0,-0.0912,-0.0929,-0.0925,-0.0946,-0.0975,-0.0979,-0.1016,-0.1026,-0.1039,-0.1054,-0.1028,-0.1027,-0.0998,-0.1019,-0.1024,-0.1007,-0.1023,-0.1017,-0.1066,-0.1072,-0.1078,-0.1103,-0.1111,-0.1006,-0.1006,-0.1005,-0.1005,0,-0.0929,-0.0955,-0.0957,-0.0998,-0.1028,-0.1055,-0.1079,-0.1107,-0.1116,-0.1127,-0.1142,-0.1096,-0.1104,-0.1088,-0.1061,-0.1095,-0.1096,-0.1069,-0.105,-0.1091,-0.1114,-0.1122,-0.101,-0.1009,-0.1008,-0.1008,0,0,-0.0913,-0.0967,-0.097,-0.101,-0.1064,-0.109,-0.1147,-0.1204,-0.1251,-0.1234,-0.1284,-0.1241,-0.1214,-0.1208,-0.1169,-0.1166,-0.1205,-0.114,-0.114,-0.1169,-0.1261,-0.1234,-0.124,-0.1194,-0.1195,-0.1196,-0.1264,0,-0.0935,-0.0989,-0.1025,-0.1103,-0.1133,-0.1186,-0.1251,-0.1302,-0.1327,-0.1369,-0.1324,-0.1335,-0.1263,-0.126,-0.125,-0.1217,-0.1228,-0.119,-0.1214,-0.1215,-0.1189,-0.1249,-0.1127,-0.1175,-0.1272,-0.1273,-0.1274,0,-0.0932,-0.0983,-0.1046,-0.117,-0.1191,-0.124,-0.1355,-0.1417,-0.1475,-0.1498,-0.1501,-0.147,-0.1457,-0.1383,-0.1365,-0.1351,-0.1319,-0.1284,-0.1285,-0.1248,-0.1204,-0.1147,-0.1186,-0.1123,-0.1286,-0.1285,-0.1284,0,-0.0893,-0.1001,-0.1057,-0.109,-0.1218,-0.1266,-0.1344,-0.1431,-0.1495,-0.1558,-0.1601,-0.159,-0.158,-0.1541,-0.1457,-0.1427,-0.1444,-0.1393,-0.1346,-0.1344,-0.1238,-0.1224,-0.1217,-0.1399,-0.1398,-0.1398,-0.1398,0,-0.0891,-0.0939,-0.1034,-0.1057,-0.1152,-0.1249,-0.1354,-0.1431,-0.1544,-0.1627,-0.1638,-0.1686,-0.1618,-0.1608,-0.1529,-0.1473,-0.1506,-0.1376,-0.1365,-0.1254,-0.1242,-0.1178,-0.1172,-0.1401,-0.14,-0.14,-0.1399,0,-0.0818,-0.0881,-0.0946,-0.1075,-0.1112,-0.1167,-0.1339,-0.1423,-0.1543,-0.1652,-0.1673,-0.1759,-0.1767,-0.1701,-0.1651,-0.1565,-0.1464,-0.1477,-0.1358,-0.1331,-0.1213,-0.1215,-0.1257,-0.1234,-0.1448,-0.1448,-0.1448,0,-0.0791,-0.0794,-0.0905,-0.0937,-0.0983,-0.1094,-0.1179,-0.1365,-0.1466,-0.169,-0.1733,-0.1803,-0.18,-0.1744,-0.1631,-0.1526,-0.1486,-0.1375,-0.128,-0.1216,-0.121,-0.1226,-0.1204,-0.1166,-0.1164,-0.1162,-0.116,0,-0.0724,-0.0732,-0.0782,-0.0822,-0.0891,-0.1008,-0.1144,-0.122,-0.1462,-0.1546,-0.1662,-0.1675,-0.172,-0.1562,-0.1483,-0.1407,-0.1315,-0.1332,-0.1286,-0.102,-0.1017,-0.0984,-0.113,-0.1142,-0.1144,-0.1146,-0.1146,-0.1147,-0.0649,-0.0657,-0.0676,-0.0708,-0.0781,-0.0852,-0.0872,-0.1013,-0.1102,-0.1144,-0.1386,-0.1261,-0.1348,-0.121,-0.1219,-0.1125,-0.1205,-0.1012,-0.1033,-0.1067,-0.1003,-0.1129,-0.1113,-0.1115,-0.1116,-0.1117,-0.1118,0,-0.0595,-0.0579,-0.0577,-0.0592,-0.0592,-0.0687,-0.08,-0.0765,-0.0739,-0.0763,-0.0762,-0.0648,-0.0641,-0.0748,-0.0795,-0.0773,-0.0775,-0.0776,-0.0736,-0.0738,-0.0841,-0.0781,-0.0667,-0.0667,-0.0667,-0.0667,-0.0667,-0.0667,-0.0576,-0.0534,-0.0516,-0.0401,-0.0396,-0.0381,-0.0397,-0.0304,-0.0255,-0.0045,0.012,0.0139,-0.0111,-0.0352,-0.0502,-0.054,-0.0547,-0.0551,-0.0627,-0.0633,-0.0655,-0.0676,-0.0616,-0.0469,-0.0469,-0.0449,-0.0449,-0.0449]},{"header":{"parameterUnit":"m.s-1","parameterCategory":2,"la1":30.2991,"la2":30.254,"lo1":-89.0895,"lo2":-89.0444,"dy":0.0017,"dx":0.0017,"nx":28,"ny":28,"refTime":"2023-03-22T21:00:00:Z","depth":"0","parameterNumber":3,"parameterNumberName":"V-component_of_CURRENTS"},"data":[0,0,0,0,0,0,0,0,0,0,0,0,0,0,0,0,0,0,0,0,0,0,0,0,0,0,0,0,0,0,0,0,0,0,0,0,0,0,0,0,0,0,0,0,0,0,0,0,0,0,0,0,0,0,0,0,0,0,0.1078,0.108,0,0.109,0.1087,0.1085,0.1003,0.1004,0.1005,0.1005,0.1026,0.1026,0.1026,0,0,0,0,0,0,0,0,0,0,0,0,0,0.0812,0.0815,0.1077,0.1081,0.1084,0.109,0.1087,0.1084,0.1003,0.1004,0.1005,0.1006,0.1027,0.1026,0.1026,0,0,0,0,0,0,0,0,0,0,0,0,0,0.0854,0.0816,0.1077,0.1069,0.1071,0.1091,0.1087,0.1083,0.1002,0.1004,0.1005,0.1006,0.1027,0.1026,0.1026,0.0999,0,0,0.1025,0.1025,0,0,0,0,0,0,0,0,0.0852,0.0859,0.1067,0.107,0.1073,0.1076,0.1003,0.1067,0.1002,0.0992,0.1005,0.1007,0.1066,0.1062,0.1012,0.1,0.1001,0.1025,0.1025,0.1025,0.1025,0,0,0,0,0,0,0,0.0849,0.0858,0.1047,0.1071,0.1075,0.101,0.1014,0.1011,0.0995,0.0993,0.0996,0.1052,0.1062,0.1013,0.1013,0.1001,0.1025,0.1025,0.1025,0.1024,0.1023,0.1023,0,0,0,0,0,0,0.0925,0.0856,0.1048,0.1051,0.1002,0.1017,0.102,0.1046,0.0995,0.0999,0.1051,0.1049,0.1013,0.1014,0.1014,0.1027,0.1025,0.1024,0.1024,0.1023,0.1023,0.1023,0,0,0,0,0,0,0.0918,0.094,0.1048,0.0982,0.0996,0.1025,0.1051,0.1046,0.0972,0.1045,0.1041,0.0985,0.1014,0.1015,0.1026,0.1027,0.1024,0.1024,0.1023,0.1023,0.1023,0.1025,0,0,0,0,0,0,0.091,0.0936,0.0927,0.0987,0.1005,0.1023,0.1053,0.1047,0.1024,0.1018,0.0988,0.0992,0.1015,0.1026,0.1025,0.1026,0.1024,0.1023,0.1023,0.1023,0.1025,0.1026,0.1026,0,0,0,0,0,0.0899,0.0892,0.0925,0.0948,0.1007,0.1024,0.1017,0.1021,0.102,0.0957,0.0989,0.0992,0.1028,0.1026,0.1025,0.1026,0.1023,0.1023,0.1023,0.1025,0.1026,0.1026,0,0,0,0,0,0,0.0794,0.0889,0.0925,0.0953,0.0982,0.1023,0.0999,0.0995,0.0955,0.0969,0.099,0.0996,0.1007,0.1011,0.1009,0.1027,0.1026,0.1026,0.1027,0.1028,0.1028,0.1015,0.1023,0,0,0,0,0,0.0776,0.0777,0.0871,0.0892,0.0914,0.0941,0.0938,0.0951,0.0972,0.0948,0.0962,0.0985,0.1006,0.1013,0.1026,0.1027,0.1027,0.1028,0.1028,0.1029,0.1017,0.1029,0.1029,0.1025,0.1025,0.1025,0,0,0.0751,0.081,0.0811,0.0867,0.0894,0.0916,0.0928,0.094,0.0948,0.0968,0.0958,0.098,0.1005,0.1024,0.1028,0.1029,0.1031,0.1029,0.1029,0.1017,0.1029,0.103,0.103,0.1025,0.1025,0.1025,0,0,0.0724,0.0752,0.0746,0.0766,0.0838,0.0868,0.0868,0.0907,0.0894,0.0914,0.0945,0.0971,0.0985,0.1017,0.1034,0.1037,0.1031,0.1033,0.1026,0.1038,0.1038,0.1038,0.1042,0.1043,0.1036,0.1036,0.1036,0,0.0693,0.0711,0.0742,0.076,0.0788,0.0849,0.0854,0.086,0.0896,0.0901,0.0921,0.0965,0.0989,0.1018,0.1032,0.1038,0.1034,0.1024,0.1038,0.1038,0.1039,0.1042,0.1043,0.1036,0.1036,0.1036,0.1036,0,0.0677,0.068,0.0685,0.0732,0.0746,0.0758,0.0834,0.0845,0.0874,0.0891,0.0914,0.096,0.0983,0.1001,0.1023,0.1034,0.1027,0.1036,0.1036,0.1039,0.1043,0.1044,0.1036,0.1036,0.1036,0.1036,0,0,0.0645,0.066,0.0663,0.0659,0.0726,0.0741,0.0793,0.0828,0.0836,0.0887,0.0887,0.095,0.0958,0.0976,0.1004,0.1025,0.1038,0.1026,0.1027,0.1028,0.105,0.1011,0.1009,0.1043,0.1044,0.1044,0.1053,0,0.0619,0.0608,0.0637,0.0635,0.0633,0.0708,0.0729,0.0778,0.0818,0.0835,0.0899,0.0901,0.0951,0.0955,0.099,0.1026,0.1038,0.1034,0.1047,0.1047,0.1012,0.1008,0.0987,0.099,0.1053,0.1053,0.1053,0,0.0606,0.0587,0.0558,0.0561,0.0569,0.0591,0.0641,0.0657,0.0722,0.0747,0.0796,0.0831,0.0888,0.0916,0.099,0.098,0.1004,0.1035,0.1037,0.0996,0.101,0.0996,0.0989,0.103,0.1054,0.1054,0.1054,0,0.0551,0.0545,0.0501,0.0503,0.0522,0.0539,0.0563,0.0623,0.0613,0.0674,0.0684,0.0762,0.079,0.0856,0.0937,0.0956,0.0999,0.1038,0.1024,0.1022,0.1004,0.0999,0.1034,0.1058,0.1058,0.1058,0.1058,0,0.0509,0.0485,0.0466,0.044,0.0401,0.0449,0.042,0.0479,0.0508,0.0487,0.0601,0.0626,0.0772,0.0828,0.0906,0.0961,0.0975,0.1011,0.1018,0.1004,0.0999,0.1034,0.1059,0.1058,0.1058,0.1058,0.1058,0,0.0472,0.0448,0.0398,0.0378,0.0369,0.0342,0.0328,0.0303,0.0355,0.0351,0.0365,0.0508,0.0604,0.0724,0.0833,0.0901,0.098,0.0967,0.0935,0.0937,0.0984,0.1009,0.1012,0.1047,0.0979,0.0978,0.0977,0,0.0453,0.0421,0.0341,0.0291,0.0281,0.0234,0.0195,0.0223,0.0201,0.0282,0.0277,0.0385,0.0515,0.0667,0.076,0.0872,0.0922,0.0897,0.0937,0.0969,0.1004,0.1013,0.1045,0.0923,0.0922,0.0921,0.092,0,0.0431,0.0399,0.0342,0.0223,0.0162,0.008,0.0044,0.0015,0.0049,0.0129,0.0266,0.0394,0.0518,0.0677,0.0757,0.0815,0.0918,0.0879,0.0929,0.0966,0.0961,0.1004,0.0933,0.0912,0.0913,0.0913,0.0914,0.0914,0.0414,0.0392,0.03,0.0181,0.0082,-0.0019,-0.0048,-0.0032,0.0007,0.0202,0.0296,0.0595,0.0711,0.0863,0.084,0.0823,0.0856,0.0886,0.0916,0.0923,0.0947,0.0841,0.0814,0.0814,0.0815,0.0815,0.0815,0,0.0393,0.037,0.0278,0.0144,0.0022,-0.0022,-0.011,-0.0069,0.0057,0.0288,0.0544,0.0958,0.097,0.0979,0.0905,0.09,0.0909,0.0907,0.094,0.0977,0.0899,0.0886,0.0852,0.0852,0.0852,0.0852,0.0852,0.0852,0.0407,0.0307,0.0267,0.0104,0.0033,-0.0064,-0.0089,0.0036,0.0189,0.0645,0.1023,0.1321,0.1426,0.1163,0.1003,0.0972,0.1053,0.0977,0.105,0.1018,0.102,0.1021,0.1016,0.101,0.101,0.1121,0.1122,0.1123]}],[{"header":{"parameterUnit":"m.s-1","parameterCategory":2,"la1":30.2991,"la2":30.254,"lo1":-89.0895,"lo2":-89.0444,"dy":0.0017,"dx":0.0017,"nx":28,"ny":28,"refTime":"2023-03-22T21:00:00:Z","depth":"2","parameterNumber":2,"parameterNumberName":"U-component_of_CURRENTS"},"data":[0,0,0,0,0,0,0,0,0,0,0,0,0,0,0,0,0,0,0,0,0,0,0,0,0,0,0,0,0,0,0,0,0,0,0,0,0,0,0,0,0,0,0,0,0,0,0,0,0,0,0,0,0,0,0,0,0,0,-0.2346,-0.2346,0,-0.2304,-0.2304,-0.2303,-0.2259,-0.2258,-0.2257,-0.2257,-0.2387,-0.239,-0.2394,0,0,0,0,0,0,0,0,0,0,0,0,0,-0.2253,-0.2256,-0.2346,-0.2346,-0.2345,-0.2304,-0.2304,-0.2303,-0.2259,-0.2258,-0.2257,-0.2257,-0.2385,-0.239,-0.2395,0,0,0,0,0,0,0,0,0,0,0,0,0,-0.226,-0.2257,-0.2346,-0.2319,-0.2316,-0.2305,-0.2304,-0.2303,-0.2259,-0.2258,-0.2257,-0.2256,-0.2384,-0.239,-0.2395,-0.2449,0,0,-0.2414,-0.2416,0,0,0,0,0,0,0,0,-0.226,-0.2264,-0.2323,-0.2321,-0.2317,-0.2287,-0.2318,-0.2361,-0.2259,-0.228,-0.2257,-0.2256,-0.237,-0.2377,-0.2368,-0.2455,-0.246,-0.2414,-0.2418,-0.242,-0.2422,0,0,0,0,0,0,0,-0.226,-0.2265,-0.2329,-0.2323,-0.2319,-0.2263,-0.2264,-0.2325,-0.2333,-0.2278,-0.2275,-0.2272,-0.237,-0.2362,-0.2371,-0.2462,-0.2414,-0.2419,-0.2423,-0.2425,-0.2533,-0.2532,0,0,0,0,0,0,-0.2276,-0.2266,-0.233,-0.2328,-0.2287,-0.2266,-0.2267,-0.2297,-0.2328,-0.2331,-0.2272,-0.227,-0.2352,-0.2364,-0.2376,-0.2422,-0.242,-0.2426,-0.2429,-0.2533,-0.2532,-0.2532,0,0,0,0,0,0,-0.2274,-0.2283,-0.2332,-0.2293,-0.2296,-0.2269,-0.2302,-0.2296,-0.2323,-0.2322,-0.2328,-0.2309,-0.2352,-0.2367,-0.2443,-0.2428,-0.2429,-0.2434,-0.2534,-0.2533,-0.2532,-0.2529,0,0,0,0,0,0,-0.2273,-0.2284,-0.2338,-0.2296,-0.2299,-0.236,-0.2303,-0.2296,-0.232,-0.2317,-0.2356,-0.2364,-0.2352,-0.2434,-0.2449,-0.2436,-0.2439,-0.2535,-0.2534,-0.2532,-0.253,-0.2528,-0.2526,0,0,0,0,0,-0.227,-0.2313,-0.2341,-0.235,-0.2366,-0.2362,-0.236,-0.2334,-0.2324,-0.2352,-0.2361,-0.2364,-0.2433,-0.2441,-0.2458,-0.2446,-0.2536,-0.2534,-0.2533,-0.2531,-0.2528,-0.2526,0,0,0,0,0,0,-0.2299,-0.2312,-0.2341,-0.2392,-0.2406,-0.2356,-0.2382,-0.2368,-0.2394,-0.2403,-0.2398,-0.2408,-0.2451,-0.2464,-0.2471,-0.2465,-0.247,-0.2472,-0.2462,-0.246,-0.2458,-0.2433,-0.2444,0,0,0,0,0,-0.2339,-0.2381,-0.2386,-0.2437,-0.2454,-0.2438,-0.2444,-0.2429,-0.2429,-0.2439,-0.2449,-0.2454,-0.2452,-0.2474,-0.2486,-0.253,-0.25,-0.2517,-0.2515,-0.2513,-0.25,-0.2445,-0.2437,-0.2526,-0.2526,-0.2526,0,0,-0.2369,-0.2379,-0.241,-0.2449,-0.246,-0.2471,-0.244,-0.2463,-0.2449,-0.2458,-0.2471,-0.2476,-0.2465,-0.2472,-0.249,-0.2489,-0.2471,-0.2511,-0.251,-0.2497,-0.2443,-0.2434,-0.2426,-0.2525,-0.2525,-0.2526,0,0,-0.242,-0.2467,-0.2522,-0.253,-0.2557,-0.2529,-0.2552,-0.2537,-0.2521,-0.2542,-0.251,-0.2513,-0.2541,-0.2497,-0.2482,-0.2492,-0.2468,-0.2492,-0.2467,-0.2414,-0.2406,-0.2399,-0.2348,-0.2336,-0.2486,-0.2486,-0.2486,0,-0.2481,-0.2517,-0.2537,-0.2571,-0.256,-0.2563,-0.2581,-0.2566,-0.2566,-0.2541,-0.2552,-0.2512,-0.2529,-0.2481,-0.246,-0.2487,-0.2454,-0.248,-0.2411,-0.2403,-0.2396,-0.2345,-0.2332,-0.2485,-0.2485,-0.2485,-0.2485,0,-0.2542,-0.2581,-0.2604,-0.2641,-0.2642,-0.2654,-0.2627,-0.2627,-0.2602,-0.2561,-0.2533,-0.2527,-0.2486,-0.2482,-0.2478,-0.2419,-0.2412,-0.2421,-0.2418,-0.2387,-0.2335,-0.2322,-0.2485,-0.2485,-0.2485,-0.2485,0,0,-0.2629,-0.2654,-0.2658,-0.2671,-0.2664,-0.2662,-0.264,-0.2599,-0.2565,-0.2551,-0.2491,-0.2464,-0.2446,-0.2427,-0.2415,-0.2372,-0.23,-0.2374,-0.2371,-0.2324,-0.2178,-0.2087,-0.2064,-0.2297,-0.2295,-0.2293,-0.2163,0,-0.2676,-0.2734,-0.2707,-0.2722,-0.274,-0.2692,-0.2657,-0.2617,-0.2567,-0.2518,-0.2467,-0.2425,-0.2426,-0.2406,-0.2361,-0.2324,-0.2264,-0.2334,-0.2214,-0.221,-0.2133,-0.2044,-0.1919,-0.1784,-0.215,-0.2148,-0.2146,0,-0.2715,-0.2739,-0.2773,-0.2737,-0.274,-0.2725,-0.2642,-0.2611,-0.2527,-0.2489,-0.2425,-0.2392,-0.2321,-0.2334,-0.2217,-0.2263,-0.221,-0.2177,-0.2171,-0.2074,-0.2092,-0.1874,-0.1746,-0.2123,-0.2125,-0.2127,-0.2128,0,-0.2725,-0.2755,-0.2769,-0.2764,-0.2744,-0.2712,-0.2677,-0.2598,-0.2542,-0.2461,-0.2413,-0.2338,-0.2283,-0.2216,-0.2135,-0.2174,-0.2003,-0.2052,-0.191,-0.1904,-0.1764,-0.1749,-0.1943,-0.1944,-0.1944,-0.1944,-0.1945,0,-0.274,-0.2746,-0.2777,-0.2779,-0.2746,-0.2729,-0.2657,-0.2608,-0.253,-0.2437,-0.2398,-0.2299,-0.2248,-0.2145,-0.21,-0.1937,-0.1962,-0.1868,-0.1846,-0.176,-0.1746,-0.2023,-0.2035,-0.1939,-0.1941,-0.1941,-0.1942,0,-0.2739,-0.2767,-0.2772,-0.2768,-0.2746,-0.2722,-0.2632,-0.2572,-0.2518,-0.2395,-0.2363,-0.225,-0.2099,-0.2032,-0.1906,-0.1859,-0.1747,-0.1683,-0.1582,-0.155,-0.1701,-0.1714,-0.1519,-0.1514,-0.151,-0.1507,-0.1504,0,-0.2748,-0.2758,-0.2756,-0.272,-0.2706,-0.266,-0.2593,-0.2549,-0.2467,-0.2328,-0.2249,-0.2102,-0.1933,-0.1725,-0.1599,-0.1462,-0.158,-0.1309,-0.1356,-0.1649,-0.1648,-0.1668,-0.1685,-0.1175,-0.117,-0.1165,-0.1162,0,-0.2713,-0.2715,-0.2702,-0.2649,-0.2589,-0.2539,-0.245,-0.2397,-0.2307,-0.2197,-0.2019,-0.1892,-0.1665,-0.1427,-0.1263,-0.1187,-0.1331,-0.1216,-0.1502,-0.131,-0.1315,-0.132,-0.1349,-0.1124,-0.1127,-0.113,-0.1132,-0.1134,-0.2636,-0.2617,-0.2572,-0.2504,-0.245,-0.2367,-0.2263,-0.2161,-0.201,-0.176,-0.1781,-0.1525,-0.1444,-0.1084,-0.0976,-0.09,-0.0997,-0.0997,-0.1014,-0.1035,-0.1026,-0.1024,-0.0776,-0.0778,-0.078,-0.0781,-0.0782,0,-0.2482,-0.2452,-0.2403,-0.2297,-0.2189,-0.2226,-0.2095,-0.1919,-0.1665,-0.1519,-0.1325,-0.1108,-0.0912,-0.0856,-0.0649,-0.0601,-0.0638,-0.0612,-0.0678,-0.0713,-0.0746,-0.0728,-0.0396,-0.0395,-0.0395,-0.0394,0,0,-0.237,-0.2261,-0.2242,-0.2016,-0.1967,-0.1782,-0.1693,-0.142,-0.1252,-0.0959,-0.0824,-0.0811,-0.0824,-0.0629,-0.0554,-0.0444,-0.0589,-0.0419,-0.072,-0.0831,-0.0864,-0.0943,-0.095,0,0,0,0,0]},{"header":{"parameterUnit":"m.s-1","parameterCategory":2,"la1":30.2991,"la2":30.254,"lo1":-89.0895,"lo2":-89.0444,"dy":0.0017,"dx":0.0017,"nx":28,"ny":28,"refTime":"2023-03-22T21:00:00:Z","depth":"2","parameterNumber":3,"parameterNumberName":"V-component_of_CURRENTS"},"data":[0,0,0,0,0,0,0,0,0,0,0,0,0,0,0,0,0,0,0,0,0,0,0,0,0,0,0,0,0,0,0,0,0,0,0,0,0,0,0,0,0,0,0,0,0,0,0,0,0,0,0,0,0,0,0,0,0,0,-0.0281,-0.028,0,-0.0233,-0.0233,-0.0233,-0.0196,-0.0195,-0.0195,-0.0194,-0.0045,-0.0041,-0.0038,0,0,0,0,0,0,0,0,0,0,0,0,0,-0.0381,-0.0379,-0.0281,-0.028,-0.0279,-0.0233,-0.0233,-0.0233,-0.0196,-0.0195,-0.0195,-0.0194,-0.0046,-0.0042,-0.0038,0,0,0,0,0,0,0,0,0,0,0,0,0,-0.0338,-0.0379,-0.0281,-0.0254,-0.025,-0.0234,-0.0233,-0.0233,-0.0196,-0.0195,-0.0194,-0.0194,-0.0047,-0.0042,-0.0037,-0.0023,0,0,-0.0021,-0.0019,0,0,0,0,0,0,0,0,-0.0341,-0.0335,-0.0258,-0.0255,-0.0252,-0.0218,-0.0214,-0.0156,-0.0196,-0.0219,-0.0194,-0.0193,-0.0092,-0.0083,-0.0081,-0.0016,-0.0009,-0.0021,-0.0018,-0.0016,-0.0014,0,0,0,0,0,0,0,-0.0344,-0.0337,-0.0264,-0.0258,-0.0254,-0.0258,-0.0251,-0.0203,-0.0161,-0.0217,-0.0214,-0.0205,-0.009,-0.0086,-0.0077,-0.0007,-0.0021,-0.0016,-0.0013,-0.0011,0.0111,0.0111,0,0,0,0,0,0,-0.0343,-0.0339,-0.0266,-0.0263,-0.0292,-0.0256,-0.0248,-0.0231,-0.0164,-0.0153,-0.0206,-0.0203,-0.0096,-0.0083,-0.0071,-0.0006,-0.0016,-0.0011,-0.0008,0.011,0.0111,0.0111,0,0,0,0,0,0,-0.0345,-0.0337,-0.0268,-0.0299,-0.029,-0.0255,-0.0237,-0.0231,-0.0207,-0.0156,-0.0143,-0.0185,-0.0094,-0.0079,-0.0004,-0.0001,-0.0008,-0.0004,0.011,0.0111,0.0111,0.0098,0,0,0,0,0,0,-0.0348,-0.0338,-0.0322,-0.0298,-0.0288,-0.0237,-0.0237,-0.023,-0.0203,-0.0199,-0.0134,-0.0121,-0.0093,-0.0012,0.0001,0.0006,0.0,0.011,0.011,0.0111,0.0098,0.0098,0.0097,0,0,0,0,0,-0.0352,-0.0345,-0.0321,-0.0312,-0.0268,-0.0236,-0.0231,-0.0206,-0.0203,-0.0184,-0.0139,-0.0122,-0.0003,-0.0007,0.0008,0.0015,0.011,0.011,0.0111,0.0098,0.0098,0.0097,0,0,0,0,0,0,-0.0383,-0.0339,-0.0313,-0.0291,-0.0251,-0.0228,-0.0218,-0.0198,-0.0153,-0.0147,-0.0102,-0.0084,-0.0025,-0.0001,-0.0007,0.0047,0.0049,0.0052,0.0034,0.0034,0.0034,0.0048,0.0005,0,0,0,0,0,-0.0379,-0.0359,-0.0312,-0.0291,-0.0274,-0.0242,-0.0226,-0.0203,-0.0165,-0.0145,-0.0097,-0.0055,-0.0018,0.0014,0.0054,0.0099,0.0136,0.0106,0.0105,0.0105,0.0125,0.0185,0.0192,0.0112,0.0112,0.0112,0,0,-0.0382,-0.0359,-0.0344,-0.0296,-0.0272,-0.024,-0.023,-0.0202,-0.0171,-0.0134,-0.0075,-0.0045,-0.0006,0.0038,0.0065,0.0065,0.0144,0.0105,0.0104,0.0126,0.0186,0.0194,0.0201,0.0112,0.0112,0.0112,0,0,-0.039,-0.0359,-0.0342,-0.0309,-0.0264,-0.024,-0.0225,-0.0181,-0.0154,-0.0096,-0.0073,-0.0024,0.0034,0.0067,0.0087,0.0112,0.0139,0.0102,0.0118,0.0175,0.0182,0.019,0.0234,0.0246,0.0101,0.0101,0.0101,0,-0.039,-0.0361,-0.0331,-0.0306,-0.0279,-0.0237,-0.0206,-0.0176,-0.0108,-0.0078,-0.0073,0.0016,0.0051,0.0106,0.0103,0.0115,0.0142,0.0116,0.0176,0.0184,0.0191,0.0236,0.0249,0.0101,0.0101,0.0101,0.0101,0,-0.0385,-0.035,-0.0343,-0.029,-0.0257,-0.0228,-0.0175,-0.0133,-0.0101,-0.0065,0.0005,0.0051,0.0105,0.0106,0.0114,0.0171,0.017,0.0168,0.0179,0.0199,0.0244,0.0258,0.01,0.01,0.01,0.01,0,0,-0.0419,-0.0347,-0.0345,-0.0309,-0.0245,-0.0219,-0.0165,-0.0099,-0.0059,-0.0001,0.0057,0.0107,0.0129,0.0153,0.0166,0.0211,0.0277,0.0206,0.0209,0.0254,0.0394,0.0318,0.0325,0.0278,0.0281,0.0283,0.0399,0,-0.0418,-0.0372,-0.0335,-0.028,-0.0247,-0.0188,-0.0143,-0.0079,-0.0023,0.0045,0.0096,0.0149,0.0144,0.0163,0.0211,0.0263,0.0314,0.0246,0.0366,0.037,0.0303,0.0339,0.0276,0.0367,0.0413,0.0415,0.0417,0,-0.0438,-0.0396,-0.0348,-0.0265,-0.0247,-0.0211,-0.0127,-0.0075,0.0022,0.0064,0.0133,0.0175,0.0251,0.0237,0.036,0.0311,0.0357,0.0396,0.0401,0.035,0.0319,0.0358,0.0391,0.044,0.0438,0.0436,0.0435,0,-0.0501,-0.0415,-0.0377,-0.0349,-0.025,-0.0218,-0.0165,-0.0074,-0.0025,0.0081,0.0128,0.022,0.0273,0.0349,0.0417,0.0394,0.0548,0.0531,0.0515,0.051,0.0493,0.0481,0.0634,0.0634,0.0634,0.0634,0.0633,0,-0.0539,-0.0506,-0.0402,-0.0382,-0.0333,-0.0254,-0.0196,-0.0129,-0.003,0.0033,0.0128,0.0195,0.0304,0.0395,0.0447,0.0519,0.0578,0.0538,0.0543,0.0482,0.0468,0.0559,0.0549,0.0638,0.0637,0.0636,0.0636,0,-0.0633,-0.056,-0.0511,-0.0403,-0.0368,-0.0341,-0.0231,-0.0187,-0.0081,0.0009,0.0041,0.0191,0.0306,0.0406,0.0542,0.0553,0.063,0.0642,0.0551,0.0541,0.0549,0.0537,0.0648,0.0646,0.0645,0.0644,0.0643,0,-0.0675,-0.0659,-0.0553,-0.0527,-0.0481,-0.0413,-0.0369,-0.0243,-0.0179,0.0002,0.0044,0.0188,0.0238,0.0405,0.0473,0.0554,0.0627,0.0571,0.0514,0.0561,0.0555,0.0545,0.0535,0.0496,0.0494,0.0493,0.0491,0,-0.0754,-0.0722,-0.0684,-0.0624,-0.0575,-0.0505,-0.0414,-0.0379,-0.0221,-0.017,-0.0054,-0.0009,0.0172,0.0239,0.0356,0.0402,0.0544,0.0535,0.0654,0.0472,0.042,0.0412,0.0408,0.0476,0.0478,0.0479,0.048,0.048,-0.0821,-0.0825,-0.077,-0.0721,-0.0659,-0.0594,-0.0566,-0.0495,-0.0449,-0.0346,-0.0234,-0.0149,0.0028,0.0128,0.024,0.0387,0.0386,0.0442,0.0448,0.0455,0.0387,0.0331,0.0359,0.036,0.0361,0.0361,0.0362,0,-0.0899,-0.0884,-0.0856,-0.079,-0.0753,-0.067,-0.0588,-0.057,-0.0579,-0.0464,-0.0432,-0.029,-0.0204,0.0057,0.021,0.0266,0.0276,0.0339,0.0358,0.037,0.0381,0.031,0.0263,0.0263,0.0264,0.0264,0,0,-0.0936,-0.0952,-0.0933,-0.0886,-0.0823,-0.0761,-0.0726,-0.0727,-0.0644,-0.0612,-0.0511,-0.0446,-0.0157,-0.0051,0.0065,0.0194,0.0262,0.0197,0.0256,0.0271,0.0282,0.0406,0.0304,0,0,0,0,0]}],[{"header":{"parameterUnit":"m.s-1","parameterCategory":2,"la1":30.2991,"la2":30.254,"lo1":-89.0895,"lo2":-89.0444,"dy":0.0017,"dx":0.0017,"nx":28,"ny":28,"refTime":"2023-03-22T21:00:00:Z","depth":"4","parameterNumber":2,"parameterNumberName":"U-component_of_CURRENTS"},"data":[0,0,0,0,0,0,0,0,0,0,0,0,0,0,0,0,0,0,0,0,0,0,0,0,0,0,0,0,0,0,0,0,0,0,0,0,0,0,0,0,0,0,0,0,0,0,0,0,0,0,0,0,0,0,0,0,0,0,-0.0884,-0.0885,0,-0.0943,-0.0944,-0.0944,-0.0969,-0.0969,-0.0969,-0.097,-0.0967,-0.0966,-0.0966,0,0,0,0,0,0,0,0,0,0,0,0,0,-0.0817,-0.0818,-0.0884,-0.0885,-0.0886,-0.0943,-0.0944,-0.0944,-0.0969,-0.0969,-0.0969,-0.097,-0.0967,-0.0966,-0.0966,0,0,0,0,0,0,0,0,0,0,0,0,0,-0.0855,-0.0818,-0.0884,-0.0908,-0.0911,-0.0943,-0.0944,-0.0944,-0.0969,-0.0969,-0.0969,-0.097,-0.0967,-0.0966,-0.0966,-0.0958,0,0,-0.0965,-0.0965,0,0,0,0,0,0,0,0,-0.0853,-0.0857,-0.0903,-0.0906,-0.091,-0.0952,-0.0919,-0.0947,-0.0969,-0.0943,-0.097,-0.097,-0.0958,-0.0958,-0.0965,-0.0958,-0.0958,-0.0965,-0.0965,-0.0964,-0.0964,0,0,0,0,0,0,0,-0.085,-0.0855,-0.0904,-0.0904,-0.0908,-0.0925,-0.093,-0.0925,-0.0944,-0.0945,-0.0948,-0.096,-0.0959,-0.0965,-0.0965,-0.0958,-0.0965,-0.0964,-0.0964,-0.0964,-0.0986,-0.0987,0,0,0,0,0,0,-0.0848,-0.0852,-0.0902,-0.0906,-0.0885,-0.0926,-0.0931,-0.0935,-0.0946,-0.0949,-0.096,-0.0961,-0.0966,-0.0965,-0.0965,-0.1008,-0.0964,-0.0964,-0.0964,-0.0986,-0.0987,-0.0988,0,0,0,0,0,0,-0.0846,-0.0851,-0.09,-0.0884,-0.0891,-0.0927,-0.0931,-0.0936,-0.0962,-0.0958,-0.096,-0.0982,-0.0966,-0.0965,-0.0956,-0.1006,-0.0964,-0.0963,-0.0985,-0.0986,-0.0987,-0.1061,0,0,0,0,0,0,-0.0844,-0.085,-0.0855,-0.0883,-0.0892,-0.0925,-0.0931,-0.0938,-0.0969,-0.0972,-0.0977,-0.0977,-0.0966,-0.0957,-0.0956,-0.1005,-0.0963,-0.0984,-0.0985,-0.0987,-0.1058,-0.1065,-0.1071,0,0,0,0,0,-0.0841,-0.0853,-0.0854,-0.0861,-0.0896,-0.0926,-0.0932,-0.0956,-0.097,-0.098,-0.0973,-0.0977,-0.0968,-0.0956,-0.0955,-0.1005,-0.0983,-0.0985,-0.0987,-0.1055,-0.1063,-0.1071,0,0,0,0,0,0,-0.083,-0.0857,-0.086,-0.0879,-0.0901,-0.0931,-0.0951,-0.0967,-0.0973,-0.0978,-0.0971,-0.0969,-0.0992,-0.0974,-0.0963,-0.1015,-0.0983,-0.0985,-0.1036,-0.1044,-0.105,-0.1034,-0.0963,0,0,0,0,0,-0.0828,-0.0842,-0.0867,-0.0884,-0.0897,-0.0926,-0.0944,-0.0961,-0.0972,-0.0978,-0.0984,-0.0987,-0.0997,-0.0998,-0.1,-0.1012,-0.0989,-0.1048,-0.1054,-0.106,-0.1045,-0.1059,-0.1066,-0.0994,-0.0994,-0.0994,0,0,-0.0827,-0.0847,-0.0853,-0.0882,-0.0904,-0.0918,-0.0937,-0.0972,-0.0991,-0.0974,-0.1001,-0.1011,-0.1004,-0.1027,-0.1038,-0.1019,-0.1067,-0.1063,-0.1068,-0.1049,-0.1062,-0.1069,-0.1075,-0.0995,-0.0995,-0.0994,0,0,-0.0832,-0.0852,-0.0861,-0.0878,-0.0914,-0.0932,-0.0945,-0.0983,-0.1008,-0.1024,-0.1032,-0.1051,-0.1062,-0.107,-0.1073,-0.1109,-0.1106,-0.1139,-0.1156,-0.1172,-0.1178,-0.1183,-0.1156,-0.1158,-0.1138,-0.1138,-0.1138,0,-0.0827,-0.0843,-0.0869,-0.0881,-0.0899,-0.0938,-0.095,-0.098,-0.1011,-0.1027,-0.1036,-0.1073,-0.1077,-0.1104,-0.1128,-0.1127,-0.1124,-0.1132,-0.1181,-0.1186,-0.1189,-0.1161,-0.1162,-0.1142,-0.1142,-0.1141,-0.1141,0,-0.0829,-0.0846,-0.086,-0.0881,-0.09,-0.0927,-0.0963,-0.1001,-0.1038,-0.1054,-0.1101,-0.1111,-0.1123,-0.1158,-0.1155,-0.1204,-0.1188,-0.1195,-0.1163,-0.1201,-0.1169,-0.1169,-0.1147,-0.1146,-0.1145,-0.1144,0,0,-0.0813,-0.085,-0.0859,-0.0863,-0.0907,-0.0921,-0.0969,-0.1008,-0.1039,-0.1079,-0.1104,-0.1153,-0.1166,-0.1169,-0.1195,-0.1222,-0.1257,-0.123,-0.123,-0.1206,-0.1273,-0.1175,-0.1165,-0.1292,-0.1292,-0.1293,-0.1237,0,-0.081,-0.0827,-0.0853,-0.087,-0.0878,-0.0928,-0.0959,-0.0999,-0.1049,-0.1081,-0.1115,-0.1152,-0.117,-0.1204,-0.1225,-0.1261,-0.1262,-0.1269,-0.1235,-0.1233,-0.1145,-0.1164,-0.1295,-0.1236,-0.1236,-0.1236,-0.1236,0,-0.08,-0.0817,-0.0831,-0.086,-0.087,-0.0892,-0.0957,-0.0988,-0.1043,-0.1082,-0.1119,-0.1149,-0.1193,-0.1209,-0.1248,-0.1262,-0.1259,-0.1277,-0.1276,-0.1153,-0.1135,-0.119,-0.1236,-0.1236,-0.1236,-0.1236,-0.1236,0,-0.0755,-0.0801,-0.0813,-0.0822,-0.086,-0.0894,-0.0927,-0.099,-0.1011,-0.1094,-0.1119,-0.1163,-0.1184,-0.122,-0.1237,-0.1267,-0.1254,-0.1289,-0.118,-0.1171,-0.1244,-0.1239,-0.1285,-0.1286,-0.1286,-0.1286,-0.1286,0,-0.0722,-0.0735,-0.0805,-0.0795,-0.0826,-0.0868,-0.091,-0.0958,-0.1006,-0.1012,-0.1111,-0.1123,-0.1198,-0.1197,-0.1222,-0.1176,-0.1228,-0.1167,-0.1153,-0.1275,-0.1274,-0.1243,-0.1239,-0.1284,-0.1284,-0.1285,-0.1285,0,-0.066,-0.0696,-0.0706,-0.0767,-0.0791,-0.0813,-0.0875,-0.0895,-0.0978,-0.0995,-0.1023,-0.108,-0.1103,-0.1128,-0.1157,-0.1131,-0.1127,-0.1084,-0.1168,-0.1163,-0.1039,-0.104,-0.0985,-0.0981,-0.0978,-0.0975,-0.0973,0,-0.0619,-0.0622,-0.0678,-0.0682,-0.0715,-0.077,-0.0791,-0.0866,-0.0891,-0.0958,-0.0944,-0.0979,-0.1014,-0.0959,-0.1004,-0.1001,-0.0996,-0.0979,-0.1055,-0.1017,-0.101,-0.1016,-0.1021,-0.0968,-0.0967,-0.0966,-0.0965,0,-0.0545,-0.058,-0.0597,-0.0619,-0.0643,-0.0665,-0.0718,-0.0722,-0.08,-0.0869,-0.0874,-0.0891,-0.087,-0.0892,-0.0863,-0.0874,-0.1006,-0.0946,-0.0955,-0.1026,-0.0996,-0.0993,-0.1002,-0.0954,-0.0955,-0.0956,-0.0957,0,-0.0505,-0.051,-0.0539,-0.0559,-0.0574,-0.0567,-0.0604,-0.0645,-0.067,-0.0767,-0.0747,-0.0799,-0.0838,-0.0818,-0.0804,-0.0794,-0.0818,-0.0835,-0.085,-0.0863,-0.0852,-0.0798,-0.067,0,0,0,0,0,-0.0463,-0.0461,-0.047,-0.0472,-0.0486,-0.0488,-0.0552,-0.0598,-0.0682,-0.066,-0.0711,-0.0708,-0.0706,-0.0725,-0.0693,-0.0742,-0.0806,-0.0703,-0.0831,-0.0891,-0.0904,-0.0904,0,0,0,0,0,0,-0.0427,-0.0436,-0.0452,-0.0413,-0.0387,-0.0387,-0.0417,-0.0466,-0.0489,-0.0578,-0.0581,-0.0653,-0.0655,-0.0691,-0.0665,-0.0671,-0.074,-0.0732,-0.0731,-0.0883,-0.0895,-0.0906,-0.0911,0,0,0,0,0]},{"header":{"parameterUnit":"m.s-1","parameterCategory":2,"la1":30.2991,"la2":30.254,"lo1":-89.0895,"lo2":-89.0444,"dy":0.0017,"dx":0.0017,"nx":28,"ny":28,"refTime":"2023-03-22T21:00:00:Z","depth":"4","parameterNumber":3,"parameterNumberName":"V-component_of_CURRENTS"},"data":[0,0,0,0,0,0,0,0,0,0,0,0,0,0,0,0,0,0,0,0,0,0,0,0,0,0,0,0,0,0,0,0,0,0,0,0,0,0,0,0,0,0,0,0,0,0,0,0,0,0,0,0,0,0,0,0,0,0,-0.0343,-0.0343,0,-0.033,-0.033,-0.033,-0.0314,-0.0314,-0.0314,-0.0313,-0.0325,-0.0326,-0.0326,0,0,0,0,0,0,0,0,0,0,0,0,0,-0.0345,-0.0345,-0.0343,-0.0343,-0.0343,-0.033,-0.033,-0.033,-0.0314,-0.0314,-0.0313,-0.0313,-0.0325,-0.0326,-0.0327,0,0,0,0,0,0,0,0,0,0,0,0,0,-0.0341,-0.0345,-0.0343,-0.0332,-0.0331,-0.033,-0.033,-0.033,-0.0315,-0.0314,-0.0313,-0.0313,-0.0325,-0.0326,-0.0327,-0.0345,0,0,-0.033,-0.033,0,0,0,0,0,0,0,0,-0.0341,-0.0341,-0.0334,-0.0333,-0.0332,-0.0322,-0.0335,-0.0336,-0.0315,-0.0323,-0.0313,-0.0313,-0.0326,-0.0327,-0.0327,-0.0345,-0.0346,-0.033,-0.033,-0.0331,-0.0331,0,0,0,0,0,0,0,-0.0341,-0.0341,-0.034,-0.0334,-0.0332,-0.0324,-0.0323,-0.0335,-0.0329,-0.0322,-0.032,-0.0316,-0.0325,-0.0326,-0.0328,-0.0346,-0.033,-0.0331,-0.0331,-0.0332,-0.0401,-0.0402,0,0,0,0,0,0,-0.0341,-0.0342,-0.034,-0.0339,-0.0333,-0.0325,-0.0324,-0.0327,-0.0329,-0.0328,-0.0317,-0.0316,-0.0325,-0.0326,-0.0328,-0.0378,-0.0331,-0.0332,-0.0332,-0.0399,-0.0401,-0.0402,0,0,0,0,0,0,-0.0341,-0.0341,-0.0341,-0.0338,-0.0337,-0.0325,-0.0329,-0.0327,-0.0332,-0.0324,-0.0324,-0.0325,-0.0325,-0.0327,-0.0357,-0.0377,-0.0332,-0.0333,-0.0398,-0.04,-0.0402,-0.046,0,0,0,0,0,0,-0.0342,-0.0342,-0.0353,-0.0339,-0.0338,-0.0351,-0.0329,-0.0327,-0.033,-0.0328,-0.0331,-0.0331,-0.0324,-0.0355,-0.0358,-0.0378,-0.0334,-0.0396,-0.0399,-0.0401,-0.0457,-0.0464,-0.047,0,0,0,0,0,-0.0342,-0.0356,-0.0354,-0.0354,-0.0351,-0.0352,-0.0352,-0.0341,-0.0331,-0.0343,-0.0349,-0.0331,-0.0371,-0.0358,-0.036,-0.0381,-0.0395,-0.0398,-0.0401,-0.0454,-0.0462,-0.047,0,0,0,0,0,0,-0.0358,-0.0355,-0.0352,-0.0364,-0.0364,-0.0349,-0.0358,-0.0349,-0.0362,-0.0365,-0.0353,-0.0355,-0.0387,-0.0379,-0.0365,-0.0407,-0.0378,-0.0381,-0.0417,-0.0425,-0.0431,-0.0451,-0.0335,0,0,0,0,0,-0.0369,-0.038,-0.0373,-0.0383,-0.0386,-0.0375,-0.0376,-0.0371,-0.0374,-0.0378,-0.0376,-0.0382,-0.04,-0.0409,-0.0418,-0.0448,-0.0434,-0.046,-0.0467,-0.0472,-0.049,-0.0493,-0.0501,-0.0411,-0.0411,-0.0411,0,0,-0.0377,-0.0375,-0.0382,-0.0387,-0.0386,-0.0407,-0.0375,-0.0384,-0.0402,-0.0379,-0.0408,-0.0408,-0.0413,-0.0445,-0.0457,-0.0442,-0.0488,-0.0476,-0.0481,-0.0496,-0.0496,-0.0505,-0.0513,-0.0413,-0.0413,-0.0413,0,0,-0.0403,-0.04,-0.0425,-0.0432,-0.0437,-0.0432,-0.0438,-0.0434,-0.0435,-0.0463,-0.0452,-0.0476,-0.0487,-0.0504,-0.0512,-0.0564,-0.0523,-0.0551,-0.0602,-0.0604,-0.0612,-0.0618,-0.0599,-0.0603,-0.0554,-0.0554,-0.0554,0,-0.0417,-0.0447,-0.0432,-0.046,-0.0474,-0.0449,-0.0484,-0.0483,-0.0489,-0.0501,-0.0482,-0.052,-0.0523,-0.0574,-0.0589,-0.0582,-0.056,-0.057,-0.0613,-0.0619,-0.0625,-0.0604,-0.0608,-0.0557,-0.0557,-0.0557,-0.0556,0,-0.0465,-0.0494,-0.0507,-0.0538,-0.055,-0.0573,-0.0571,-0.0581,-0.0574,-0.0575,-0.0612,-0.0617,-0.0641,-0.064,-0.0633,-0.0676,-0.0638,-0.0619,-0.0592,-0.0637,-0.0612,-0.0615,-0.0562,-0.0561,-0.056,-0.0559,0,0,-0.0488,-0.0536,-0.0545,-0.0573,-0.0597,-0.0608,-0.0641,-0.0666,-0.0687,-0.069,-0.0724,-0.0755,-0.0744,-0.0754,-0.0742,-0.0746,-0.0763,-0.0699,-0.0698,-0.068,-0.0744,-0.0643,-0.0635,-0.0739,-0.074,-0.0741,-0.0705,0,-0.0537,-0.0604,-0.0618,-0.0682,-0.0715,-0.0714,-0.0743,-0.0759,-0.0762,-0.0782,-0.0788,-0.0815,-0.0789,-0.08,-0.0805,-0.0774,-0.0776,-0.0774,-0.0704,-0.0703,-0.0607,-0.0638,-0.0745,-0.0707,-0.0707,-0.0708,-0.0708,0,-0.0589,-0.0624,-0.07,-0.0752,-0.0767,-0.0804,-0.0842,-0.0868,-0.0887,-0.0887,-0.0912,-0.0898,-0.0925,-0.0885,-0.0868,-0.0859,-0.0816,-0.0783,-0.0781,-0.0673,-0.0608,-0.0656,-0.0713,-0.0713,-0.0712,-0.0712,-0.0712,0,-0.0609,-0.0684,-0.0745,-0.0766,-0.0818,-0.0854,-0.0883,-0.0909,-0.0917,-0.0958,-0.0951,-0.0983,-0.0971,-0.0952,-0.0871,-0.0874,-0.0818,-0.0816,-0.0689,-0.068,-0.0755,-0.0749,-0.0811,-0.0811,-0.0812,-0.0812,-0.0812,0,-0.0652,-0.0702,-0.0762,-0.0795,-0.0856,-0.0888,-0.0947,-0.0968,-0.0989,-0.0991,-0.1007,-0.0985,-0.098,-0.093,-0.0889,-0.0778,-0.0831,-0.0707,-0.0671,-0.0778,-0.0775,-0.0756,-0.075,-0.081,-0.0811,-0.0811,-0.0811,0,-0.0665,-0.0709,-0.0776,-0.0847,-0.087,-0.0914,-0.0967,-0.0988,-0.1009,-0.1009,-0.1015,-0.0982,-0.091,-0.087,-0.0815,-0.0767,-0.0701,-0.0645,-0.0743,-0.0712,-0.0565,-0.0563,-0.0539,-0.0536,-0.0532,-0.053,-0.0528,0,-0.0679,-0.0715,-0.0802,-0.0833,-0.0872,-0.0935,-0.0962,-0.0998,-0.0999,-0.0978,-0.0956,-0.0896,-0.086,-0.0709,-0.0678,-0.0598,-0.0573,-0.0557,-0.0598,-0.0573,-0.0541,-0.0544,-0.0546,-0.0523,-0.0522,-0.0521,-0.052,0,-0.0688,-0.0723,-0.077,-0.0834,-0.0879,-0.0924,-0.0963,-0.0952,-0.0965,-0.0973,-0.0884,-0.0821,-0.0715,-0.0649,-0.0564,-0.0511,-0.0594,-0.0524,-0.0532,-0.057,-0.0553,-0.0525,-0.053,-0.0509,-0.0511,-0.0512,-0.0512,0,-0.0685,-0.0712,-0.0767,-0.0818,-0.0872,-0.0897,-0.0928,-0.0909,-0.0906,-0.0871,-0.083,-0.0749,-0.0717,-0.0596,-0.0522,-0.0456,-0.0456,-0.047,-0.0481,-0.0492,-0.0483,-0.0455,-0.0358,0,0,0,0,0,-0.0674,-0.0691,-0.0739,-0.0794,-0.0847,-0.0876,-0.0907,-0.0922,-0.0916,-0.0841,-0.0836,-0.0735,-0.0606,-0.0555,-0.0469,-0.0475,-0.0456,-0.0374,-0.048,-0.0449,-0.0461,-0.0449,0,0,0,0,0,0,-0.0661,-0.0701,-0.0724,-0.0757,-0.0787,-0.0834,-0.0857,-0.0859,-0.0815,-0.0801,-0.0728,-0.0706,-0.058,-0.0644,-0.046,-0.044,-0.0496,-0.0321,-0.0319,-0.0442,-0.0453,-0.0463,-0.0455,0,0,0,0,0]}]]